Weather in Yartsevo

Russia / Smolensk Oblast     55°04′07″N   32°41′22″E
temp.,
°C
wind,
m/s
gust,
m/s
humid.,
%
clouds,
%
prec.,
mm/h
press.,
hPa
HPBL,
m
9 march, tue
tue900:00−12nnw279547 0.0 1014187
03:00−13nnw259651 0.0 101699
06:00−14nw249647 0.0 101797
09:00−12nnw379044 0.0 1018351
12:00−9nnw357755 0.0 1020879
15:00−8nnw357577 0.1 10201061
18:00−9nw2685100 0.1 1021328
21:00−13nw229082 0.1 102421
10 march, wed
wed1000:00−14nnw119337 0.0 102520
03:00−13ese119369 0.0 102520
06:00−12ese2395100 0.7 1025134
09:00−12e3594100 2.2 1026278
12:00−11e4690100 0.6 1027424
15:00−11e4686100 0.8 1027498
18:00−13ene4784100 0.0 1028399
21:00−18e369250 0.0 1030141
11 march, thu
thu1100:00−19ese23950 0.0 103269
03:00−20ese23935 0.0 103366
06:00−21se239354 0.0 103366
09:00−18se268247 0.0 1033218
12:00−12sse35720 0.0 1032357
15:00−9sse35720 0.0 1031510
18:00−10sse26820 0.0 1030212
21:00−14sse38880 0.0 1031210
12 march, fri
fri1200:00−15sse39920 0.0 1030233
03:00−16sse389510 0.0 1029251
06:00−16sse3119679 0.0 1028278
09:00−13sse4119089 0.0 1026344
12:00−7sse6128018 0.0 1024640
15:00−4s7137633 0.0 10221031
18:00−5sse71481100 0.0 10191031
21:00−6s81591100 0.6 10181057
13 march, sat
sat1300:00−6s71592100 1.1 10161035
03:00−5s61494100 3.3 1014835
06:00−3s51295100 1.9 1013546
09:000sw51091100 2.5 1014683
12:00+2sw51094100 0.0 1015700
15:00+1ssw599894 0.0 1015608
18:00+1ssw51096100 0.0 1014640
21:00+1ssw51295100 0.0 1014772